[[{"header":{"parameterUnit":"m.s-1","parameterCategory":1,"la1":30.2991,"la2":30.254,"lo1":-89.0895,"lo2":-89.0444,"dy":0.0017,"dx":0.0017,"nx":28,"ny":28,"refTime":"2024-07-20T09:00:00:Z","depth":0,"parameterNumber":2,"parameterNumberName":"U-component_of_WINDS"},"data":[0,0,0,0,0,0,0,0,0,0,0,0,0,0,0,0,0,0,0,0,0,0,0,0,0,0,0,0,0,0,0,0,0,0,0,0,0,0,0,0,0,0,0,0,0,0,0,0,0,0,0,0,0,0,0,0,0,0,3.8998,3.9,0,3.9153,3.9155,3.9157,3.9126,3.9123,3.912,3.9117,3.9275,3.9281,3.9288,0,0,0,0,0,0,0,0,0,0,0,0,0,3.867,3.8676,3.8998,3.9,3.9002,3.9153,3.9155,3.9157,3.9126,3.9123,3.9119,3.9116,3.9272,3.9281,3.9289,0,0,0,0,0,0,0,0,0,0,0,0,0,3.8817,3.8678,3.8998,3.9005,3.9007,3.9153,3.9155,3.9158,3.9127,3.9123,3.9118,3.9114,3.927,3.928,3.929,3.9438,0,0,3.9321,3.9326,0,0,0,0,0,0,0,0,3.8809,3.8829,3.9002,3.9004,3.9007,3.9116,3.9097,3.9252,3.9128,3.9081,3.9117,3.9112,3.9225,3.9239,3.9277,3.9446,3.9452,3.9322,3.9328,3.9333,3.9336,0,0,0,0,0,0,0,3.8799,3.8823,3.9059,3.9004,3.9007,3.8998,3.9015,3.9126,3.9175,3.9085,3.9083,3.9102,3.9226,3.9267,3.9281,3.9455,3.9322,3.9331,3.9337,3.9341,3.9747,3.9751,0,0,0,0,0,0,3.8787,3.8814,3.9054,3.9064,3.8896,3.9008,3.9026,3.9085,3.9174,3.9183,3.9105,3.91,3.9252,3.9269,3.9286,3.9462,3.9333,3.9342,3.9348,3.9742,3.9748,3.9753,0,0,0,0,0,0,3.878,3.8808,3.9048,3.8939,3.8969,3.9018,3.9085,3.909,3.9132,3.9189,3.9197,3.9139,3.9249,3.9272,3.9399,3.9467,3.9347,3.9356,3.9737,3.9744,3.975,3.9816,0,0,0,0,0,0,3.877,3.8806,3.8864,3.894,3.8975,3.9161,3.9089,3.9097,3.915,3.9144,3.9223,3.9232,3.9248,3.9384,3.941,3.9479,3.9364,3.9731,3.974,3.9748,3.9808,3.9825,3.9839,0,0,0,0,0,3.8759,3.8877,3.8867,3.8897,3.9049,3.9165,3.9184,3.92,3.9156,3.9213,3.9249,3.923,3.9456,3.9398,3.9426,3.9499,3.9727,3.9737,3.9748,3.9801,3.9821,3.9838,0,0,0,0,0,0,3.8809,3.8888,3.8877,3.9025,3.9088,3.9159,3.9233,3.9221,3.9299,3.929,3.9306,3.9324,3.9453,3.9489,3.9423,3.9645,3.9585,3.9601,3.9616,3.9635,3.965,3.9637,3.9373,0,0,0,0,0,3.8837,3.8925,3.8989,3.9113,3.9145,3.9183,3.9235,3.9241,3.9307,3.9334,3.938,3.9444,3.9529,3.9585,3.9666,3.9814,3.9828,3.9878,3.9893,3.9905,3.9918,3.9994,4.0015,3.9787,3.9787,3.9787,0,0,3.8895,3.895,3.9005,3.9124,3.9174,3.9263,3.9206,3.9305,3.937,3.9349,3.9471,3.9507,3.9579,3.9716,3.9779,3.975,3.9984,3.9918,3.9928,3.9934,4.0007,4.0028,4.0047,3.9794,3.9793,3.9792,0,0,3.9047,3.9099,3.9205,3.9256,3.9332,3.9356,3.9381,3.9454,3.9476,3.96,3.9584,3.9662,3.981,3.986,3.9905,4.0073,4.0056,4.0099,4.0177,4.0251,4.0269,4.0284,4.034,4.036,4.0112,4.0113,4.0113,0,3.9111,3.9246,3.9261,3.936,3.9411,3.9395,3.9501,3.9549,3.9648,3.9683,3.965,3.9831,3.9879,4.0025,4.0066,4.0105,4.0131,4.0089,4.0265,4.0281,4.0296,4.0349,4.037,4.0117,4.0117,4.0116,4.0116,0,3.9317,3.9411,3.9488,3.9582,3.9642,3.9744,3.9772,3.9831,3.9832,3.9858,3.9982,4.0038,4.0129,4.0165,4.0168,4.0311,4.029,4.0261,4.0201,4.0322,4.0372,4.0393,4.0123,4.0122,4.0121,4.0119,0,0,3.9506,3.9605,3.9632,3.9673,3.9754,3.9826,3.9926,4.0014,4.0062,4.013,4.0211,4.0335,4.0307,4.0359,4.0366,4.0432,4.0555,4.0394,4.0396,4.0418,4.071,4.0729,4.0752,4.0545,4.0549,4.0552,4.0703,0,3.9662,3.9838,3.9853,4.001,4.0094,4.0079,4.0165,4.0223,4.025,4.0324,4.0354,4.0439,4.0399,4.0429,4.0493,4.0526,4.0613,4.0516,4.0617,4.0621,4.0596,4.0779,4.08,4.094,4.0723,4.0726,4.0729,0,3.9868,3.994,4.0105,4.0171,4.0206,4.0284,4.0363,4.0436,4.05,4.0514,4.057,4.0568,4.0667,4.0605,4.074,4.0673,4.0716,4.0738,4.0744,4.0751,4.068,4.0788,4.0985,4.1004,4.076,4.0758,4.0756,0,3.9983,4.0122,4.0238,4.0273,4.0354,4.0407,4.0443,4.0503,4.0554,4.0624,4.0656,4.0737,4.078,4.0842,4.086,4.0814,4.0993,4.0933,4.1005,4.1004,4.1041,4.1038,4.1244,4.1075,4.1075,4.1074,4.1074,0,4.0154,4.0254,4.029,4.036,4.0471,4.0487,4.0596,4.0628,4.0681,4.0756,4.0749,4.0819,4.0841,4.0914,4.093,4.1036,4.1057,4.107,4.1072,4.1068,4.1066,4.1094,4.1083,4.108,4.1079,4.1077,4.1077,0,4.03,4.0329,4.0453,4.0518,4.0536,4.0615,4.0669,4.0736,4.0761,4.0856,4.0879,4.0918,4.1003,4.1028,4.1132,4.1142,4.1265,4.1261,4.1244,4.1243,4.1311,4.1303,4.154,4.157,4.1384,4.1386,4.1388,0,4.0406,4.0483,4.0555,4.0604,4.0642,4.0723,4.0773,4.0791,4.0844,4.092,4.0977,4.1061,4.113,4.1266,4.1303,4.1381,4.1375,4.1453,4.1387,4.1379,4.1371,4.1365,4.1371,4.1464,4.1466,4.1468,4.1469,0,4.0589,4.0598,4.0672,4.075,4.0811,4.0874,4.0934,4.0975,4.1,4.106,4.1147,4.1199,4.1303,4.1386,4.1464,4.1499,4.1487,4.149,4.151,4.1505,4.149,4.1495,4.1273,4.1484,4.1482,4.1481,4.1481,4.148,4.0716,4.0781,4.0841,4.0922,4.0969,4.1024,4.1089,4.1121,4.1194,4.1279,4.1286,4.1378,4.1436,4.154,4.1579,4.165,4.1627,4.1658,4.1664,4.1671,4.1674,4.1482,4.1665,4.1665,4.1665,4.1664,4.1664,0,4.0894,4.0931,4.1006,4.1089,4.1152,4.1137,4.1202,4.1255,4.1337,4.1392,4.1459,4.1556,4.1635,4.1677,4.1755,4.1804,4.18,4.1823,4.1818,4.1825,4.1692,4.1665,4.1825,4.1825,4.1824,4.1824,4.1824,4.1824,4.0994,4.1102,4.1118,4.1248,4.1285,4.1375,4.1413,4.1463,4.1506,4.1615,4.1681,4.1708,4.1757,4.1837,4.1908,4.1918,4.1945,4.1971,4.1977,4.1852,4.1835,4.1819,4.1794,4.1977,4.1978,4.2104,4.2105,4.2106]},{"header":{"parameterUnit":"m.s-1","parameterCategory":1,"la1":30.2991,"la2":30.254,"lo1":-89.0895,"lo2":-89.0444,"dy":0.0017,"dx":0.0017,"nx":28,"ny":28,"refTime":"2024-07-20T09:00:00:Z","depth":0,"parameterNumber":3,"parameterNumberName":"V-component_of_WINDS"},"data":[0,0,0,0,0,0,0,0,0,0,0,0,0,0,0,0,0,0,0,0,0,0,0,0,0,0,0,0,0,0,0,0,0,0,0,0,0,0,0,0,0,0,0,0,0,0,0,0,0,0,0,0,0,0,0,0,0,0,2.3905,2.3905,0,2.3913,2.3913,2.3913,2.3865,2.3863,2.3862,2.3861,2.3869,2.387,2.3871,0,0,0,0,0,0,0,0,0,0,0,0,0,2.3847,2.3848,2.3905,2.3905,2.3905,2.3913,2.3913,2.3913,2.3865,2.3863,2.3862,2.386,2.3868,2.387,2.3872,0,0,0,0,0,0,0,0,0,0,0,0,0,2.3865,2.3849,2.3905,2.3882,2.388,2.3913,2.3913,2.3913,2.3865,2.3863,2.3861,2.3859,2.3867,2.387,2.3872,2.3927,0,0,2.3879,2.388,0,0,0,0,0,0,0,0,2.3864,2.3868,2.3885,2.3884,2.3882,2.3886,2.3895,2.3918,2.3866,2.3871,2.3861,2.3858,2.3876,2.3877,2.3883,2.3927,2.3927,2.3879,2.388,2.3881,2.3882,0,0,0,0,0,0,0,2.3863,2.3867,2.3908,2.3886,2.3883,2.3871,2.3871,2.3899,2.3885,2.387,2.3867,2.3868,2.3874,2.3881,2.3883,2.3928,2.3879,2.3881,2.3882,2.3883,2.4014,2.4016,0,0,0,0,0,0,2.3865,2.3866,2.3908,2.3908,2.3868,2.3874,2.3874,2.3886,2.3884,2.3882,2.387,2.3866,2.3878,2.3881,2.3883,2.3946,2.3881,2.3883,2.3885,2.4012,2.4015,2.4017,0,0,0,0,0,0,2.3864,2.3869,2.3908,2.3886,2.389,2.3877,2.3891,2.3888,2.3894,2.3884,2.3881,2.388,2.3877,2.388,2.3916,2.3945,2.3884,2.3886,2.401,2.4013,2.4016,2.4072,0,0,0,0,0,0,2.3863,2.3869,2.3891,2.3887,2.3892,2.3941,2.3893,2.3889,2.3898,2.3893,2.3893,2.3891,2.3876,2.3913,2.3918,2.3947,2.3888,2.4007,2.4011,2.4015,2.4068,2.4077,2.4085,0,0,0,0,0,2.3861,2.3907,2.3892,2.3897,2.3918,2.3942,2.3945,2.3927,2.3901,2.3922,2.3915,2.3891,2.3941,2.3917,2.3922,2.3953,2.4005,2.401,2.4015,2.4064,2.4075,2.4085,0,0,0,0,0,0,2.3915,2.3906,2.3889,2.3936,2.394,2.3934,2.396,2.394,2.3952,2.3946,2.3923,2.3923,2.3963,2.3961,2.3934,2.4004,2.3969,2.3975,2.4004,2.4015,2.4023,2.4022,2.389,0,0,0,0,0,2.3932,2.3953,2.3944,2.3985,2.3988,2.3974,2.3984,2.3969,2.3973,2.3975,2.3971,2.3975,2.3991,2.4003,2.4018,2.4067,2.4065,2.4091,2.4099,2.4107,2.4112,2.4136,2.4146,2.4033,2.4033,2.4033,0,0,2.3968,2.3965,2.398,2.3996,2.3998,2.4019,2.3976,2.4001,2.4016,2.3979,2.4011,2.4009,2.4012,2.4054,2.4072,2.4054,2.4143,2.4113,2.4118,2.412,2.4142,2.4153,2.4162,2.4036,2.4036,2.4035,0,0,2.4043,2.4045,2.4078,2.408,2.4083,2.4073,2.4081,2.4078,2.4074,2.4107,2.4078,2.4096,2.4126,2.4129,2.4134,2.4209,2.4186,2.4214,2.4259,2.4283,2.4292,2.4299,2.4325,2.4334,2.422,2.422,2.422,0,2.4088,2.4119,2.4098,2.4124,2.4132,2.4098,2.4131,2.4134,2.4142,2.4147,2.4127,2.4162,2.4162,2.4203,2.4221,2.4227,2.4234,2.4214,2.4292,2.43,2.4307,2.433,2.434,2.4223,2.4223,2.4222,2.4222,0,2.4172,2.4194,2.4221,2.4228,2.4238,2.4268,2.4251,2.4264,2.4248,2.424,2.4272,2.4271,2.4284,2.4293,2.4278,2.4331,2.432,2.4296,2.4259,2.4321,2.4343,2.4352,2.4228,2.4227,2.4226,2.4225,0,0,2.4284,2.4277,2.4287,2.4289,2.4289,2.4305,2.4332,2.4345,2.4355,2.4361,2.4383,2.4408,2.4385,2.4391,2.4376,2.4397,2.4454,2.4371,2.437,2.4385,2.4511,2.4529,2.454,2.444,2.4441,2.4443,2.4511,0,2.4356,2.4403,2.4384,2.4432,2.445,2.4417,2.4441,2.4443,2.4436,2.445,2.4442,2.4459,2.4429,2.4432,2.4451,2.4444,2.4479,2.4439,2.4459,2.446,2.4458,2.4551,2.457,2.4634,2.4519,2.4521,2.4522,0,2.4448,2.4456,2.4506,2.45,2.4507,2.4529,2.4537,2.4552,2.4553,2.4546,2.4552,2.4531,2.4557,2.4521,2.4555,2.4527,2.4534,2.4532,2.4534,2.4534,2.4494,2.4553,2.4654,2.4664,2.4535,2.4534,2.4533,0,2.4522,2.4546,2.4578,2.4581,2.4575,2.459,2.4589,2.4588,2.4595,2.4603,2.4608,2.4618,2.4624,2.4633,2.4615,2.4591,2.4652,2.4614,2.4646,2.4646,2.466,2.4659,2.4762,2.4666,2.4666,2.4666,2.4665,0,2.4605,2.4636,2.4611,2.463,2.4664,2.4641,2.4675,2.4669,2.4668,2.4686,2.4658,2.4675,2.4652,2.4667,2.4654,2.4683,2.4686,2.468,2.4676,2.4682,2.4683,2.4686,2.4681,2.4668,2.4668,2.4667,2.4667,0,2.4694,2.4678,2.471,2.4701,2.47,2.4725,2.4717,2.4734,2.4724,2.4746,2.475,2.4735,2.475,2.4734,2.4749,2.474,2.4779,2.4769,2.4779,2.4775,2.4807,2.4804,2.4915,2.4928,2.4825,2.4826,2.4827,0,2.4747,2.477,2.4763,2.4772,2.4772,2.4788,2.4795,2.4773,2.4782,2.4783,2.48,2.4813,2.4822,2.4849,2.4838,2.4849,2.4838,2.4877,2.484,2.4845,2.4837,2.4836,2.4837,2.4884,2.4885,2.4886,2.4887,0,2.4843,2.4833,2.4845,2.4853,2.4862,2.4868,2.4872,2.4881,2.4858,2.4869,2.4884,2.4891,2.4905,2.4918,2.4926,2.4923,2.4901,2.4899,2.4906,2.4912,2.4916,2.4913,2.4798,2.4896,2.4895,2.4895,2.4894,2.4894,2.4915,2.4932,2.493,2.4943,2.4943,2.4946,2.4961,2.4952,2.4964,2.4974,2.496,2.4978,2.4977,2.4984,2.4985,2.4998,2.4982,2.4994,2.4996,2.4999,2.5003,2.4915,2.5,2.5,2.4999,2.4999,2.4999,0,2.5008,2.5004,2.5016,2.5021,2.5031,2.5008,2.5011,2.5021,2.5037,2.5037,2.5046,2.5062,2.5074,2.5065,2.5074,2.5087,2.5077,2.509,2.5088,2.5088,2.5018,2.501,2.5098,2.5098,2.5098,2.5098,2.5098,2.5098,2.5057,2.5086,2.5076,2.5103,2.5099,2.5116,2.5119,2.5121,2.5121,2.514,2.515,2.5143,2.5139,2.5148,2.5158,2.5154,2.5159,2.5175,2.5168,2.5103,2.5093,2.5084,2.5076,2.5177,2.5177,2.5237,2.5238,2.5238]}]]